Flag for U.S.A. Weather past 2 weeks in Jackson, Wyoming, U.S.A.

Now
43 °F

Scattered showers. Broken clouds.


Feels Like: 43 °F
Forecast: 31 / 45 °F
Wind: No wind

Location: Jackson Hole

Current Time: Oct 1, 2014 at 4:40:20 PM

Latest Report: Oct 1, 2014 at 3:54 PM


Visibility: 10 mi

Pressure: 30.07 "Hg

Humidity: 61%

Dew point: 30 °F

Location of JacksonLocation

Historic Weather in Jackson — Graph

°F

Jackson temperature yesterday

Maximum temperature yesterday: 50 °F (at 1:51 PM)
Minimum temperature yesterday: 37 °F (at 10:15 PM)
Average temperature yesterday: 43 °F

Past Weeks' High & Low Weather Summary

 TemperatureHumidityPressure
High81 °F (Sep 25, 2:51 PM)100% (Sep 18, 8:55 PM)30.36 "Hg (Sep 18, 8:55 PM)
Low36 °F (Sep 20, 6:51 AM)20% (Sep 25, 3:51 PM)29.87 "Hg (Sep 30, 6:59 PM)
Average51 °F81%30.14 "Hg
* Reported Sep 16 2:51 PM — Oct 1 2:51 PM, Jackson, Weather by CustomWeather, © 2014

Note: Actual official high and low records may vary slightly from our data, if they occured in-between our weather recording intervals... More about our weather records

Advertising

Jackson weather history for previous 24 hours

 ConditionsComfort  
Time TempWeatherWind HumidityBarometerVisibility
2:51 PM
Oct 1
45 °FPartly sunny.No wind57%30.06 "Hg10 mi
1:51 PM45 °FScattered showers. Overcast.No wind57%30.05 "Hg10 mi
1:00 PM45 °FScattered showers. Partly sunny.No wind61%30.05 "Hg10 mi
11:51 AM41 °FLight rain. Cloudy.3 mph76%30.06 "Hg10 mi
10:55 AM39 °FScattered showers. Partly sunny.No wind87%30.05 "Hg10 mi
9:51 AM36 °FScattered showers. Cloudy.No wind100%30.03 "Hg10 mi
7:52 AM37 °FScattered showers. Fog.No wind100%30.00 "Hg7 mi
6:53 AM37 °FPartly cloudy.No wind93%29.98 "Hg10 mi
6:35 AM37 °FPartly cloudy.No wind93%29.97 "Hg10 mi
5:55 AM37 °FOvercast.6 mph93%29.96 "Hg10 mi
5:35 AM37 °FOvercast.3 mph93%29.95 "Hg10 mi
5:15 AM39 °FMostly cloudy.No wind87%29.95 "Hg10 mi
4:55 AM37 °FOvercast.5 mph93%29.95 "Hg10 mi
4:35 AM37 °FOvercast.6 mph87%29.94 "Hg10 mi
4:15 AM37 °FMostly cloudy.5 mph93%29.94 "Hg10 mi
3:55 AM39 °FOvercast.5 mph87%29.94 "Hg10 mi
3:35 AM37 °FOvercast.6 mph93%29.94 "Hg10 mi
3:15 AM37 °FMostly cloudy.7 mph93%29.94 "Hg10 mi
2:55 AM37 °FOvercast.6 mph93%29.95 "Hg10 mi
2:35 AM39 °FOvercast.8 mph87%29.95 "Hg10 mi
2:15 AM39 °FMostly cloudy.14 mph87%29.94 "Hg10 mi
1:55 AM39 °FOvercast.13 mph87%29.95 "Hg10 mi
1:35 AM39 °FOvercast.14 mph81%29.95 "Hg10 mi
1:15 AM39 °FOvercast.12 mph87%29.95 "Hg10 mi
12:55 AM41 °FOvercast.14 mph81%29.95 "Hg10 mi
12:35 AM39 °FOvercast.13 mph87%29.95 "Hg10 mi
11:55 PM
Sep 30
39 °FMostly cloudy.5 mph87%29.95 "Hg10 mi
11:35 PM39 °FOvercast.3 mph87%29.96 "Hg10 mi
11:15 PM37 °FPassing clouds.5 mph93%29.96 "Hg10 mi
10:55 PM37 °FPartly cloudy.10 mph87%29.95 "Hg10 mi
10:35 PM37 °FPassing clouds.8 mph87%29.95 "Hg10 mi
10:15 PM37 °FPassing clouds.9 mph87%29.95 "Hg10 mi
9:55 PM39 °FPassing clouds.8 mph81%29.95 "Hg10 mi
9:35 PM39 °FPassing clouds.3 mph81%29.94 "Hg10 mi
9:15 PM39 °FPassing clouds.3 mph81%29.94 "Hg10 mi
8:55 PM41 °FPassing clouds.8 mph81%29.93 "Hg10 mi
7:59 PM45 °FMostly cloudy.12 mph81%29.91 "Hg10 mi
6:59 PM45 °FBroken clouds.10 mph93%29.87 "Hg10 mi
5:53 PM46 °FBroken clouds.9 mph93%29.89 "Hg10 mi
4:57 PM46 °FBroken clouds.8 mph93%29.88 "Hg10 mi
Weather by CustomWeather, © 2014

See weather overviewHow to use our weather pages